shijiazhuang , China , ASIA

  • Saturday
    October 20

      Overcast

      48 °F

      No wind

       

  • Sunday
    October 21

    Cloudy  Cloudy

    66 °F  50 °F

    South  No wind

        

  • Monday
    October 22

    Sunny  Sunny

    72 °F  48 °F

    Northwest  North

    3~4L    

  • Tuesday
    October 23

    Sunny  Sunny

    68 °F  46 °F

    South  North

        

  • Wednesday
    October 24

    Cloudy  Cloudy

    68 °F  50 °F

    South  North

        

  • Thursday
    October 25

    Overcast  Cloudy

    61 °F  48 °F

    North  North

        

  • Friday
    October 26

    Sunny  Sunny

    61 °F  45 °F

    Northwest  North

    3~4L    

Date   Weather Temperature Humidity Total_rain Visibility Wind
23:00 Overcast 52°F 65.9% 0mm 999.9km Southwest  0.7m/s
02:00 Overcast 51°F 66.3% 0mm 999.9km Southwest  0.3m/s
05:00 Overcast 49°F 73.7% 0mm 999.9km Northwest  0.3m/s
08:00 Overcast 49°F 72% 0mm 999.9km Northwest  0.8m/s
11:00 Cloudy 60°F 54.9% 0mm 999.9km Southwest  1.2m/s
14:00 Cloudy 66°F 53.2% 0mm 999.9km Southeast  1.9m/s
17:00 Cloudy 63°F 58.1% 0mm 999.9km Southeast  1.9m/s
20:00 Cloudy 58°F 50.3% 0mm 999.9km Southwest  1.0m/s
23:00 Cloudy 56°F 79.6% 0mm 999.9km Southwest  0.6m/s
02:00 Cloudy 51°F 77.8% 0mm 999.9km Southwest  1.0m/s
05:00 Cloudy 50°F 75.9% 0mm 999.9km Northwest  0.7m/s
08:00 Cloudy 53°F 74% 0mm 999.9km Northwest  1.7m/s
11:00 Sunny 63°F 44.6% 0mm 999.9km Northwest  2.1m/s
14:00 Sunny 71°F 35.4% 0mm 999.9km Northwest  3.0m/s
17:00 Sunny 69°F 33.5% 0mm 999.9km Northwest  2.9m/s
20:00 Sunny 61°F 31.5% 0mm 999.9km Northwest  0.8m/s
23:00 Sunny 52°F 40% 0mm 999.9km Northwest  1.2m/s
02:00 Sunny 51°F 40.3% 0mm 999.9km Northwest  2.1m/s
05:00 Sunny 49°F 53.6% 0mm 999.9km Northwest  2.0m/s
08:00 Sunny 51°F 53.4% 0mm 999.9km Northwest  1.9m/s
11:00 Sunny 63°F 36.1% 0mm 999.9km Southwest  1.9m/s
14:00 Sunny 68°F 31.5% 0mm 999.9km Southwest  3.0m/s
17:00 Sunny 65°F 36.8% 0mm 999.9km Southeast  2.8m/s
20:00 Sunny 56°F 28.4% 0mm 999.9km Southwest  0.9m/s
23:00 Sunny 52°F 49% 0mm 999.9km Southwest  0.3m/s
02:00 Sunny 49°F 56.7% 0mm 999.9km Southwest  0.8m/s
05:00 Sunny 47°F 57.4% 0mm 999.9km Northwest  0.8m/s
08:00 Sunny 54°F 53.5% 0mm 999.9km Northwest  1.3m/s
11:00 Cloudy 62°F 34.7% 0mm 999.9km Southwest  1.7m/s
14:00 Cloudy 68°F 32.5% 0mm 999.9km Southeast  2.1m/s
17:00 Cloudy 65°F 38.2% 0mm 999.9km Southeast  1.7m/s
20:00 Cloudy 60°F 29.1% 0mm 999.9km Southeast  0.6m/s
23:00 Cloudy 52°F 70.6% 0mm 999.9km Southwest  0.3m/s
02:00 Cloudy 50°F 72.9% 0mm 999.9km Southwest  0.5m/s
05:00 Cloudy 50°F 75.2% 0mm 999.9km Southwest  0.6m/s
08:00 Cloudy 51°F 73.9% 0mm 999.9km Southwest  1.4m/s
11:00 Overcast 57°F 61.1% 0mm 999.9km Northwest  1.1m/s
14:00 Overcast 60°F 68.6% 0mm 999.9km Northwest  1.5m/s
17:00 Overcast 57°F 63.2% 0mm 999.9km Northwest  1.4m/s
20:00 Overcast 55°F 60.9% 0mm 999.9km Northwest  0.6m/s
23:00 Cloudy 52°F 82.6% 0mm 999.9km Northwest  0.5m/s
02:00 Cloudy 51°F 70.4% 0mm 999.9km Northwest  1.0m/s
05:00 Cloudy 49°F 68.5% 0mm 999.9km Northwest  0.7m/s
08:00 Cloudy 51°F 66.6% 0mm 999.9km Northwest  0.9m/s
11:00 Sunny 57°F 52.4% 0mm 999.9km Northwest  1.3m/s
14:00 Sunny 60°F 45.7% 0mm 999.9km Northwest  1.8m/s
17:00 Sunny 58°F 47.7% 0mm 999.9km Northwest  1.0m/s
20:00 Sunny 54°F 41.8% 0mm 999.9km Northwest  1.4m/s
23:00 Sunny 52°F 57.6% 0mm 999.9km Northwest  1.9m/s
02:00 Sunny 48°F 51.1% 0mm 999.9km Northwest  2.0m/s
05:00 Sunny 47°F 50.7% 0mm 999.9km Northwest  1.4m/s